Zurück zum Katalog

STARLINK-36656

AktivKommunikationVLEO
NORAD 67841·PAYLOAD·🇺🇸 United States

Gestartet Feb 16, 2026 von Vandenberg Space Force Base

Loading…

Nächste Überflüge (nächste 24 Stunden)

TLE

AktuellSource: CelesTrak SupGP

Epoche: Sep 15, 2026, 03:47 UTC

1 67841C 26033W   26258.15812500 -.00012908  00000+0 -46778-3 0  2589
2 67841  43.0025 276.9778 0001333 265.3598  14.9936 15.27566007    18

Verfolge STARLINK-36656 in Echtzeit mit AllMySat

Download on the App Store